Regional Weather Roundup
Issued by NWS

Home | Current Version | Previous Version | Graphics & Text | Print | Product List | Glossary On
Versions: 1 2 3 4 5 6 7 8 9 10 11 12 13 14 15 16 17 18 19 20 21 22 23 24 25 26 27 28 29 30 31 32 33 34 35 36 37 38 39 40 41 42 43 44 45 46 47 48 49 50
000
ASUS43 KOAX 032102
RWRNE

WEATHER ROUNDUP FOR NEBRASKA
NATIONAL WEATHER SERVICE OMAHA NE
300 PM CST TUE MAR 03 2015

NOTES: SATELLITE DATA IS BEING USED TO AUGMENT CLOUD COVER ABOVE
       12000 FEET.
       "FAIR" INDICATES FEW OR NO CLOUDS BELOW 12,000 FEET WITH NO
       SIGNIFICANT WEATHER AND/OR OBSTRUCTIONS TO VISIBILITY.

  * THESE STATIONS DO NOT REPORT WEATHER SUCH AS RAIN...SNOW OR FOG.

NEZ001>004-019>022-054>056-032200-
NEBRASKA PANHANDLE

CITY           SKY/WX    TMP DP  RH WIND       PRES   REMARKS
SCOTTSBLUFF    CLOUDY    22  10  60 W12       29.92F WCI  10
ALLIANCE       CLOUDY    21   9  59 NW13      29.91F WCI   9
CHADRON        LGT SNOW  17  11  77 NE3       29.98F VSB 3/4
KIMBALL        FLURRIES  18  10  71 N7        29.86R WCI   8
SIDNEY         CLOUDY    22   9  57 NE10      29.90F WCI  11
$$

NEZ057>060-069>072-079>082-032200-
SOUTHWEST NEBRASKA

CITY           SKY/WX    TMP DP  RH WIND       PRES   REMARKS
NORTH PLATTE   PTSUNNY   29   9  43 N21       29.95S WCI  16
IMPERIAL         N/A     30  10  43 N22       29.91F WCI  17
LEXINGTON      MOSUNNY   32  10  40 N16G23    29.95R WCI  21
MCCOOK         MOSUNNY   36  11  35 N15G23    29.92F WCI  27
$$

NEZ005>010-023>029-035>040-094-032200-
NORTH CENTRAL NEBRASKA

CITY           SKY/WX    TMP DP  RH WIND       PRES   REMARKS
VALENTINE      MOSUNNY   20   7  57 NW16G28   29.98F WCI   6
AINSWORTH      SUNNY     21   7  54 NW21G26   29.96S WCI   5
BROKEN BOW     CLOUDY    30   6  36 N24G36    29.95R WCI  16
ORD            SUNNY     29   4  34 N24G31    29.96R WCI  15
$$

NEZ041-046>049-061>064-073>077-083>087-032200-
SOUTH CENTRAL NEBRASKA

CITY           SKY/WX    TMP DP  RH WIND       PRES   REMARKS
GRAND ISLAND   PTSUNNY   31  11  43 N21G28    29.95R WCI  18
HASTINGS       MOSUNNY   32  12  43 N25G31    29.92S WCI  19
HEBRON         PTSUNNY   35  15  43 N24       29.90R WCI  23
KEARNEY *      MOSUNNY   34  10  37 N18G26    29.94S WCI  23
$$

NEZ011>018-030>034-042>045-032200-
NORTHEAST NEBRASKA

CITY           SKY/WX    TMP DP  RH WIND       PRES   REMARKS
NORFOLK        SUNNY     28   3  34 N28G36    29.93R WCI  13
BLAIR          CLOUDY    33  19  57 NW21G29   29.87R WCI  21
COLUMBUS *     MOSUNNY   30   9  40 N24G32    29.94R WCI  16
FREMONT        MOSUNNY   34  17  48 NW21G31   29.91S WCI  22
TEKAMAH        MOSUNNY   33  18  53 NW29      29.90R WCI  19
$$

NEZ050>053-065>068-078-088>093-032200-
SOUTHEAST NEBRASKA

CITY           SKY/WX    TMP DP  RH WIND       PRES   REMARKS
LINCOLN        PTSUNNY   34  16  47 N26       29.91S WCI  21
OMAHA EPPLEY   PTSUNNY   32  20  61 N26G32    29.88R WCI  18
FALLS CITY     CLOUDY    39  25  57 NW23G31   29.86R WCI  28
$$

NEZ044-045-051>053-067-032200-
OMAHA AREA

CITY           SKY/WX    TMP DP  RH WIND       PRES   REMARKS
OMAHA EPPLEY   PTSUNNY   32  20  61 N26G32    29.88R WCI  18
BLAIR          CLOUDY    33  19  57 NW21G29   29.87R WCI  21
FREMONT        MOSUNNY   34  17  48 NW21G31   29.91S WCI  22
OFFUTT AFB     CLOUDY    34  20  56 NW15G25   29.88R WCI  24
$$



USA.gov is the U.S. government's official web portal to all federal, state and local government web resources and services.